DAL2292 KTVC-KDTW

Flight info

Callsign DAL2292
Flight time 0h 35m
Altitude 29000
Route LEFSA LAYKS2
Aircraft A319/M-VGDW/C

Departure

Time 2026-05-07 22:51
Airport Cherry Capital Airport (KTVC)

Arrival

Time 2026-05-07 23:26
Airport Detroit Metropolitan Wayne County Airport (KDTW)
Time Latitude Longitude Altitude Speed Heading
2026-05-07 22:30 44.73770 -85.57903 621 ft 0 kts 258°
2026-05-07 22:43 44.73773 -85.57885 621 ft 2 kts 258°
2026-05-07 22:43 44.73776 -85.57864 621 ft 2 kts 258°
2026-05-07 22:43 44.73778 -85.57843 621 ft 2 kts 283°
2026-05-07 22:43 44.73771 -85.57825 621 ft 2 kts 317°
2026-05-07 22:44 44.73758 -85.57815 621 ft 2 kts 352°
2026-05-07 22:44 44.73751 -85.57814 621 ft 1 kts
2026-05-07 22:44 44.73747 -85.57815 621 ft 0 kts
2026-05-07 22:44 44.73748 -85.57815 621 ft 0 kts
2026-05-07 22:45 44.73750 -85.57815 621 ft 0 kts
2026-05-07 22:46 44.73759 -85.57814 621 ft 4 kts
2026-05-07 22:47 44.73806 -85.57812 621 ft 9 kts
2026-05-07 22:47 44.73882 -85.57805 621 ft 12 kts
2026-05-07 22:47 44.73947 -85.57784 620 ft 8 kts 69°
2026-05-07 22:47 44.73943 -85.57667 620 ft 14 kts 93°
2026-05-07 22:48 44.73937 -85.57521 619 ft 15 kts 93°
2026-05-07 22:48 44.73930 -85.57358 618 ft 17 kts 93°
2026-05-07 22:48 44.73919 -85.57182 617 ft 17 kts 98°
2026-05-07 22:48 44.73879 -85.57027 616 ft 17 kts 114°
2026-05-07 22:49 44.73838 -85.56860 615 ft 19 kts 99°
2026-05-07 22:49 44.73829 -85.56667 613 ft 20 kts 92°
2026-05-07 22:49 44.73822 -85.56479 611 ft 12 kts 92°
2026-05-07 22:49 44.73875 -85.56413 610 ft 12 kts
2026-05-07 22:50 44.73968 -85.56410 610 ft 13 kts 350°
2026-05-07 22:50 44.74001 -85.56525 611 ft 14 kts 271°
2026-05-07 22:50 44.74022 -85.56981 616 ft 86 kts 273°
2026-05-07 22:50 44.74075 -85.58166 635 ft 151 kts 273°
2026-05-07 22:51 44.74146 -85.59673 1327 ft 156 kts 272°
2026-05-07 22:51 44.74215 -85.61186 2026 ft 168 kts 272°
2026-05-07 22:51 44.73947 -85.62815 2665 ft 184 kts 237°
2026-05-07 22:51 44.72936 -85.63989 3364 ft 203 kts 205°
2026-05-07 22:52 44.71462 -85.64143 4010 ft 229 kts 165°
2026-05-07 22:52 44.70079 -85.62936 4655 ft 251 kts 137°
2026-05-07 22:52 44.68849 -85.61065 5324 ft 271 kts 132°
2026-05-07 22:52 44.67600 -85.59032 6094 ft 284 kts 131°
2026-05-07 22:53 44.66304 -85.56943 7086 ft 289 kts 133°
2026-05-07 22:53 44.64954 -85.54844 8044 ft 294 kts 134°
2026-05-07 22:53 44.63554 -85.52734 8978 ft 301 kts 135°
2026-05-07 22:53 44.62111 -85.50607 9894 ft 307 kts 135°
2026-05-07 22:54 44.60605 -85.48419 10733 ft 317 kts 136°
2026-05-07 22:54 44.59034 -85.46155 11310 ft 335 kts 136°
2026-05-07 22:54 44.57381 -85.43782 11872 ft 351 kts 136°
2026-05-07 22:54 44.55647 -85.41299 12663 ft 359 kts 136°
2026-05-07 22:55 44.53923 -85.38830 13526 ft 363 kts 136°
2026-05-07 22:55 44.52145 -85.36289 14372 ft 367 kts 136°
2026-05-07 22:55 44.49765 -85.32890 15428 ft 373 kts 137°
2026-05-07 22:55 44.48529 -85.31126 15961 ft 376 kts 137°
2026-05-07 22:56 44.46704 -85.28526 16716 ft 381 kts 137°
2026-05-07 22:56 44.44831 -85.25858 17458 ft 385 kts 137°
2026-05-07 22:56 44.42965 -85.23206 18155 ft 389 kts 137°
2026-05-07 22:56 44.41072 -85.20517 18843 ft 394 kts 137°
2026-05-07 22:57 44.39128 -85.17761 19548 ft 397 kts 137°
2026-05-07 22:57 44.37209 -85.15040 20386 ft 396 kts 137°
2026-05-07 22:57 44.35287 -85.12313 21298 ft 393 kts 137°
2026-05-07 22:57 44.33394 -85.09631 22154 ft 391 kts 137°
2026-05-07 22:58 44.31499 -85.06950 22978 ft 390 kts 136°
2026-05-07 22:58 44.29591 -85.04252 23792 ft 388 kts 136°
2026-05-07 22:58 44.27708 -85.01593 24565 ft 387 kts 136°
2026-05-07 22:58 44.25822 -84.98930 25284 ft 387 kts 137°
2026-05-07 22:59 44.23939 -84.96276 25953 ft 388 kts 137°
2026-05-07 22:59 44.22061 -84.93631 26579 ft 388 kts 137°
2026-05-07 22:59 44.20159 -84.90955 27204 ft 389 kts 137°
2026-05-07 22:59 44.18261 -84.88287 27779 ft 390 kts 137°
2026-05-07 23:00 44.16340 -84.85591 28288 ft 393 kts 137°
2026-05-07 23:00 44.14422 -84.82901 28729 ft 398 kts 137°
2026-05-07 23:00 44.12465 -84.80160 28881 ft 401 kts 137°
2026-05-07 23:01 44.08538 -84.74657 28883 ft 402 kts 137°
2026-05-07 23:01 44.04608 -84.69108 28877 ft 403 kts 136°
2026-05-07 23:02 44.00689 -84.63579 28890 ft 403 kts 137°
2026-05-07 23:02 43.96752 -84.58041 28892 ft 403 kts 137°
2026-05-07 23:03 43.92811 -84.52503 28882 ft 404 kts 137°
2026-05-07 23:03 43.88865 -84.46973 28900 ft 404 kts 137°
2026-05-07 23:04 43.84927 -84.41462 28883 ft 404 kts 137°
2026-05-07 23:04 43.80958 -84.35924 28894 ft 405 kts 137°
2026-05-07 23:04 43.78950 -84.33240 28746 ft 403 kts 142°
2026-05-07 23:05 43.76751 -84.30843 28532 ft 398 kts 149°
2026-05-07 23:05 43.74426 -84.28827 28297 ft 393 kts 154°
2026-05-07 23:05 43.72067 -84.26977 28012 ft 390 kts 155°
2026-05-07 23:05 43.69711 -84.25163 27623 ft 387 kts 155°
2026-05-07 23:06 43.67368 -84.23350 27178 ft 387 kts 155°
2026-05-07 23:06 43.65031 -84.21529 26714 ft 387 kts 155°
2026-05-07 23:06 43.62710 -84.19714 26224 ft 388 kts 154°
2026-05-07 23:06 43.60374 -84.17883 25720 ft 388 kts 154°
2026-05-07 23:07 43.57219 -84.15408 25001 ft 389 kts 154°
2026-05-07 23:07 43.55667 -84.14192 24656 ft 389 kts 154°
2026-05-07 23:07 43.53312 -84.12347 24117 ft 389 kts 154°
2026-05-07 23:07 43.50959 -84.10500 23575 ft 389 kts 154°
2026-05-07 23:08 43.48634 -84.08678 23038 ft 389 kts 154°
2026-05-07 23:08 43.46218 -84.06794 22482 ft 406 kts 154°
2026-05-07 23:08 43.43752 -84.04871 21903 ft 408 kts 154°
2026-05-07 23:08 43.41328 -84.02902 21323 ft 407 kts 152°
2026-05-07 23:09 43.38937 -84.00836 20802 ft 403 kts 151°
2026-05-07 23:09 43.36599 -83.98801 20295 ft 400 kts 151°
2026-05-07 23:09 43.34277 -83.96777 19784 ft 397 kts 151°
2026-05-07 23:09 43.31956 -83.94762 19294 ft 394 kts 151°
2026-05-07 23:10 43.29642 -83.92753 18811 ft 391 kts 151°
2026-05-07 23:10 43.27344 -83.90762 18349 ft 389 kts 152°
2026-05-07 23:10 43.25089 -83.88811 17838 ft 387 kts 152°
2026-05-07 23:10 43.22813 -83.86845 17390 ft 383 kts 152°
2026-05-07 23:11 43.20587 -83.84923 16924 ft 381 kts 152°
2026-05-07 23:11 43.18333 -83.82976 16458 ft 379 kts 152°
2026-05-07 23:11 43.16135 -83.81082 16015 ft 377 kts 152°
2026-05-07 23:11 43.13926 -83.79198 15595 ft 375 kts 153°
2026-05-07 23:12 43.11718 -83.77328 15059 ft 375 kts 153°
2026-05-07 23:12 43.09504 -83.75452 14499 ft 375 kts 153°
2026-05-07 23:12 43.07276 -83.73564 14014 ft 372 kts 153°
2026-05-07 23:12 43.05094 -83.71715 13575 ft 368 kts 153°
2026-05-07 23:13 43.02959 -83.69905 13159 ft 364 kts 153°
2026-05-07 23:13 43.00813 -83.68089 12742 ft 360 kts 153°
2026-05-07 23:13 42.98707 -83.66307 12336 ft 356 kts 153°
2026-05-07 23:13 42.96593 -83.64520 11930 ft 352 kts 153°
2026-05-07 23:14 42.94548 -83.62794 11564 ft 347 kts 153°
2026-05-07 23:14 42.92514 -83.61075 11230 ft 338 kts 153°
2026-05-07 23:14 42.90552 -83.59417 10814 ft 329 kts 153°
2026-05-07 23:14 42.88623 -83.57792 10431 ft 325 kts 153°
2026-05-07 23:15 42.86696 -83.56172 10074 ft 321 kts 153°
2026-05-07 23:15 42.84837 -83.54604 9948 ft 309 kts 153°
2026-05-07 23:15 42.83011 -83.53062 9586 ft 307 kts 153°
2026-05-07 23:15 42.81221 -83.51553 9228 ft 305 kts 153°
2026-05-07 23:16 42.79406 -83.50040 8878 ft 302 kts 155°
2026-05-07 23:16 42.77599 -83.48651 8509 ft 300 kts 155°
2026-05-07 23:16 42.75774 -83.47273 8147 ft 298 kts 155°
2026-05-07 23:16 42.73962 -83.45911 7734 ft 298 kts 155°
2026-05-07 23:17 42.72158 -83.44563 7308 ft 298 kts 155°
2026-05-07 23:17 42.70329 -83.43212 6877 ft 298 kts 155°
2026-05-07 23:17 42.68505 -83.41880 6446 ft 298 kts 155°
2026-05-07 23:17 42.66701 -83.40572 6021 ft 292 kts 155°
2026-05-07 23:18 42.64935 -83.39298 5596 ft 285 kts 155°
2026-05-07 23:18 42.63207 -83.38055 5169 ft 283 kts 155°
2026-05-07 23:18 42.61468 -83.36813 4743 ft 283 kts 155°
2026-05-07 23:18 42.59704 -83.35564 4313 ft 284 kts 155°
2026-05-07 23:19 42.57980 -83.34350 4011 ft 279 kts 156°
2026-05-07 23:19 42.56252 -83.33130 3986 ft 277 kts 156°
2026-05-07 23:19 42.54528 -83.31918 3847 ft 278 kts 156°
2026-05-07 23:19 42.52770 -83.30889 3515 ft 272 kts 169°
2026-05-07 23:20 42.50932 -83.30454 3195 ft 268 kts 176°
2026-05-07 23:20 42.49100 -83.30173 2993 ft 263 kts 178°
2026-05-07 23:20 42.47308 -83.29913 2982 ft 248 kts 178°
2026-05-07 23:20 42.45659 -83.29667 2978 ft 234 kts 178°
2026-05-07 23:21 42.44081 -83.29513 2980 ft 225 kts 183°
2026-05-07 23:21 42.42507 -83.29453 2985 ft 225 kts 183°
2026-05-07 23:21 42.40947 -83.29390 2987 ft 225 kts 183°
2026-05-07 23:21 42.39384 -83.29324 2988 ft 224 kts 183°
2026-05-07 23:22 42.37805 -83.29256 2990 ft 224 kts 183°
2026-05-07 23:22 42.36312 -83.29182 2978 ft 210 kts 183°
2026-05-07 23:22 42.34891 -83.29106 3026 ft 194 kts 184°
2026-05-07 23:22 42.33568 -83.29224 3044 ft 187 kts 195°
2026-05-07 23:23 42.32393 -83.29653 2875 ft 166 kts 207°
2026-05-07 23:23 42.31356 -83.30192 2685 ft 152 kts 209°
2026-05-07 23:23 42.30460 -83.30787 2508 ft 136 kts 215°
2026-05-07 23:23 42.29678 -83.31386 2285 ft 124 kts 218°
2026-05-07 23:24 42.28939 -83.31966 2012 ft 123 kts 217°
2026-05-07 23:24 42.28188 -83.32527 1782 ft 122 kts 216°
2026-05-07 23:24 42.27455 -83.33074 1600 ft 122 kts 216°
2026-05-07 23:24 42.26711 -83.33617 1458 ft 121 kts 216°
2026-05-07 23:25 42.25975 -83.34163 1340 ft 121 kts 216°
2026-05-07 23:25 42.25235 -83.34709 1253 ft 121 kts 214°
2026-05-07 23:25 42.24485 -83.35246 1117 ft 121 kts 214°
2026-05-07 23:25 42.23739 -83.35796 970 ft 121 kts 215°
2026-05-07 23:26 42.23005 -83.36340 786 ft 121 kts 214°
2026-05-07 23:26 42.22269 -83.36885 645 ft 119 kts 214°
2026-05-07 23:26 42.21664 -83.37341 644 ft 76 kts 209°
2026-05-07 23:26 42.21345 -83.37572 645 ft 28 kts 210°
2026-05-07 23:27 42.20978 -83.37670 646 ft 26 kts 180°
2026-05-07 23:27 42.20805 -83.37717 647 ft 25 kts 209°
2026-05-07 23:27 42.20649 -83.37833 647 ft 25 kts 209°
2026-05-07 23:28 42.20498 -83.37946 648 ft 24 kts 211°
2026-05-07 23:28 42.20346 -83.38055 649 ft 24 kts 209°
2026-05-07 23:28 42.20200 -83.38165 649 ft 20 kts 208°
2026-05-07 23:28 42.20127 -83.38148 649 ft 12 kts 122°
2026-05-07 23:29 42.20081 -83.38035 648 ft 14 kts 122°
2026-05-07 23:29 42.19992 -83.37951 647 ft 16 kts 149°
2026-05-07 23:29 42.19891 -83.37869 646 ft 17 kts 149°
2026-05-07 23:29 42.19806 -83.37744 645 ft 19 kts 117°
2026-05-07 23:30 42.19737 -83.37574 644 ft 21 kts 119°
2026-05-07 23:30 42.19664 -83.37395 643 ft 22 kts 119°
2026-05-07 23:30 42.19593 -83.37205 642 ft 23 kts 107°
2026-05-07 23:30 42.19629 -83.37006 641 ft 23 kts 48°
2026-05-07 23:31 42.19765 -83.36886 641 ft 23 kts 29°
2026-05-07 23:31 42.19908 -83.36780 641 ft 23 kts 28°
2026-05-07 23:31 42.20051 -83.36675 641 ft 23 kts 30°
2026-05-07 23:31 42.20174 -83.36584 641 ft 16 kts 29°
2026-05-07 23:32 42.20209 -83.36488 641 ft 13 kts 103°
2026-05-07 23:32 42.20189 -83.36352 641 ft 16 kts 101°
2026-05-07 23:32 42.20168 -83.36198 641 ft 14 kts 99°
2026-05-07 23:32 42.20219 -83.36111 641 ft 14 kts 28°
2026-05-07 23:33 42.20313 -83.36043 641 ft 15 kts 28°
2026-05-07 23:33 42.20384 -83.36006 642 ft 5 kts 336°
2026-05-07 23:33 42.20399 -83.36041 642 ft 4 kts 297°
2026-05-07 23:33 42.20405 -83.36058 642 ft 0 kts 298°